Location: Banska Bystrica
(48.7333°N, 19.1500°E)
Time: 11:03:18
(UTC+01:00)

ISS - Pass Details

Date: 27 January 2021
Orbit: 417 x 422 km, 51.6° (Epoch: 07 March)

Event Time Altitude Azimuth Distance (km) Brightness Sun altitude
Rises 17:59:47 0° 273° (W) 2,372 1.7 -14.2°
Reaches altitude 10° 18:01:55 10° 279° (W) 1,508 0.2 -14.5°
Maximum altitude 18:05:14 50° 356° (N) 546 -3.3 -15.1°
Enters shadow 18:06:28 32° 53° (NE) 759 -3.0 -15.3°
